Simultaneous Nadir Overpasses (SNOs) Predictions

Prediction of SNOs between NOAA-19 and TERRA Satellite Orbit:

Table of predicted SNOs for the next 14.0 days since TLE Epoch: 8/3/2013
Index Date (NOAA-19) Time (NOAA-19) Lat,Lon (NOAA-19) SZA (NOAA-19 ) Date (TERRA) Time (TERRA) Lat,Lon (TERRA) SZA (TERRA ) Distance(km) Time Diff (sec)
1 08/03/2013 16:43:37 -69.73, 109.10 127.71 08/03/2013 16:44:42 -69.71, 109.18 127.72 3.27 65
2 08/03/2013 17:34:34 69.58, -83.43 52.16 08/03/2013 17:34:10 69.56, -83.39 52.13 2.99 24
3 08/05/2013 21:27:53 -69.70, 38.09 127.14 08/05/2013 21:29:01 -69.70, 38.08 127.14 0.61 68
4 08/05/2013 22:18:50 69.53,-154.41 52.70 08/05/2013 22:18:29 69.54,-154.49 52.71 3.33 21
5 08/08/2013 02:12:10 -69.73, -33.01 126.50 08/08/2013 02:13:19 -69.74, -32.94 126.49 2.89 69
6 08/08/2013 03:03:08 69.60, 134.44 53.38 08/08/2013 03:02:47 69.58, 134.48 53.36 2.28 21
7 08/10/2013 06:56:26 -69.72,-104.05 125.87 08/10/2013 06:57:38 -69.72,-104.06 125.88 0.39 72
8 08/10/2013 07:47:24 69.56, 63.44 53.98 08/10/2013 07:47:06 69.55, 63.37 53.97 2.79 18
9 08/12/2013 11:40:44 -69.83,-175.26 125.11 08/12/2013 11:41:55 -69.80,-175.02 125.15 9.72 71
10 08/12/2013 12:31:41 69.59, -7.66 54.66 08/12/2013 12:31:24 69.58, -7.68 54.65 1.32 17
11 08/14/2013 16:25:01 -69.89, 113.59 124.38 08/14/2013 16:26:13 -69.82, 113.93 124.45 14.91 72
12 08/14/2013 17:15:58 69.62, -78.76 55.36 08/14/2013 17:15:42 69.60, -78.73 55.34 2.98 16
13 08/16/2013 21:09:18 -69.96, 42.43
